This demonstration page uses our WeatherBlox Daily Observations layout. Learn more.

Left ArrowRight Arrow

30.21309, -93.2044

Hourly Observations for August 8, 2020

Temp ( °F °C ) Dew Point ( °F °C ) Humidity (%) Winds ( mph kmh ) Pressure ( in mb ) Visibility ( mi km ) Precip ( " mm )
12:15 am 00:15 Clear 79 25.9 75 24 89 89 Calm 30.06 1018 10 16 0.00 0.00
12:35 am 00:35 Clear 79 26 75 24.1 89 89 Calm 30.06 1018 10 16 0.00 0.00
12:55 am 00:55 Clear 78 25.4 75 24 92 92 SSE 3 6 30.07 1018 10 16 0.00 0.00
1:15 am 01:15 Clear 78 25.4 75 24.1 93 93 Calm 30.06 1018 10 16 0.00 0.00
1:35 am 01:35 Clear 78 25.8 76 24.3 91 91 Calm 30.07 1018 10 16 0.00 0.00
1:55 am 01:55 Clear 78 25.8 76 24.3 91 91 Calm 30.06 1018 10 16 0.00 0.00
2:15 am 02:15 Clear 78 25.4 76 24.3 94 94 Calm 30.06 1018 10 16 0.00 0.00
2:35 am 02:35 Clear 78 25.3 76 24.5 95 95 Calm 30.06 1018 10 16 0.00 0.00
2:55 am 02:55 Clear 78 25.4 76 24.6 95 95 Calm 30.07 1018 10 16 0.00 0.00
3:15 am 03:15 Clear 78 25.6 76 24.5 94 94 SE 5 7 30.07 1018 10 16 0.00 0.00
3:35 am 03:35 Clear 77 25.2 76 24.4 95 95 Calm 30.07 1018 10 16 0.00 0.00
3:55 am 03:55 Clear 77 25.2 76 24.4 95 95 Calm 30.07 1018 10 16 0.00 0.00
4:15 am 04:15 Clear 78 25.5 76 24.6 95 95 Calm 30.07 1018 10 16 0.00 0.00
4:35 am 04:35 Clear 77 25.2 76 24.4 95 95 E 3 6 30.07 1018 7 11 0.00 0.00
4:55 am 04:55 Clear 77 25.2 76 24.3 95 95 E 3 6 30.07 1018 10 16 0.00 0.00
5:15 am 05:15 Partly Cloudy 77 25.1 76 24.5 96 96 Calm 30.07 1018 7 11 0.00 0.00
5:35 am 05:35 Partly Cloudy 77 24.9 76 24.4 97 97 Calm 30.07 1018 7 11 0.00 0.00
6:00 am 06:00 Mostly Clear 77 25 75 24 94 94 Calm 30.08 1019 10 16 0.00 0.00
6:45 am 06:45 Mostly Sunny 77 25 75 24 94 94 Calm 30.09 1019 10 16 0.00 0.00
7:48 am 07:48 Mostly Sunny 79 26 77 25 94 94 Calm 30.10 1019 10 16 0.00 0.00
8:50 am 08:50 Mostly Sunny 82 28 79 26 89 89 Calm 30.12 1020 10 16 0.00 0.00
9:50 am 09:50 Mostly Sunny 86 30 79 26 79 79 Calm 30.13 1020 10 16 0.00 0.00
10:51 am 10:51 Partly Cloudy 90 32 77 25 67 67 SSE 7 11 30.13 1020 10 16 0.00 0.00
11:52 am 11:52 Mostly Cloudy 90 32 75 24 63 63 SE 5 7 30.13 1020 10 16 0.00 0.00
12:51 pm 12:51 Mostly Cloudy 91 33 75 24 59 59 SSE 9 15 30.12 1020 10 16 0.00 0.00
1:45 pm 13:45 Mostly Cloudy 91 33 73 23 56 56 S 6 9 30.10 1019 10 16 0.00 0.00
2:45 pm 14:45 Cloudy 86 30 72 22 62 62 WNW 8 13 30.10 1019 10 16 0.00 0.00
3:50 pm 15:50 Mostly Cloudy 82 28 77 25 84 84 N 5 7 30.09 1019 10 16 0.00 0.00
4:50 pm 16:50 Partly Cloudy 86 30 77 25 75 75 S 6 9 30.09 1019 10 16 0.00 0.00
5:50 pm 17:50 Partly Cloudy 88 31 75 24 66 66 Calm 30.08 1019 10 16 0.00 0.00
6:50 pm 18:50 Mostly Sunny 86 30 77 25 75 75 SSE 6 9 30.07 1018 10 16 0.00 0.00
7:45 pm 19:45 Mostly Sunny 84 29 77 25 79 79 S 3 6 30.08 1019 10 16 0.00 0.00
8:45 pm 20:45 Mostly Clear 79 26 77 25 94 94 S 6 9 30.08 1019 10 16 0.00 0.00
9:45 pm 21:45 Mostly Clear 79 26 75 24 89 89 S 6 9 30.10 1019 10 16 0.00 0.00
10:15 pm 22:15 Clear 79 25.9 76 24.6 93 93 S 5 7 30.10 1019 10 16 0.00 0.00
10:35 pm 22:35 Clear 79 25.9 76 24.7 93 93 S 3 6 30.11 1020 10 16 0.00 0.00
10:55 pm 22:55 Clear 78 25.5 76 24.5 94 94 S 3 6 30.11 1020 10 16 0.00 0.00
11:15 pm 23:15 Clear 78 25.6 76 24.6 94 94 SSE 5 7 30.11 1020 10 16 0.00 0.00
11:35 pm 23:35 Clear 78 25.4 76 24.4 94 94 SSE 5 7 30.11 1020 10 16 0.00 0.00
11:55 pm 23:55 Clear 78 25.3 76 24.3 94 94 SE 5 7 30.11 1020 10 16 0.00 0.00

Powered by AerisWeather